This demonstration page uses our WeatherBlox Daily Observations layout. Learn more.

Left ArrowRight Arrow

44.8408, -93.29828

Hourly Observations for September 28, 2022

Temp ( °F °C ) Dew Point ( °F °C ) Humidity (%) Winds ( mph kmh ) Pressure ( in mb ) Visibility ( mi km ) Precip ( " mm )
12:53 am 00:53 Clear 42 5.6 36 2.2 79 79 Calm 30.43 1031 10 16 0.00 0.00
1:53 am 01:53 Clear 40 4.4 36 2.2 86 86 Calm 30.45 1031 10 16 0.00 0.00
2:53 am 02:53 Clear 39 3.9 36 2.2 89 89 Calm 30.46 1032 10 16 0.00 0.00
3:53 am 03:53 Clear 39 3.9 36 2.2 89 89 Calm 30.47 1032 10 16 0.00 0.00
4:11 am 04:11 Clear 38 3.3 35 1.7 89 89 Calm 30.49 1033 10 16 0.00 0.00
4:53 am 04:53 Clear with Mist and Fog 39 3.9 35 1.7 86 86 Calm 30.48 1032 1 2 0.00 0.00
5:04 am 05:04 Clear 39 3.9 36 2.2 89 89 Calm 30.50 1033 10 16 0.00 0.00
5:53 am 05:53 Clear 38 3.3 34 1.1 85 85 Calm 30.49 1033 10 16 0.00 0.00
6:01 am 06:01 Clear with Patchy Fog 38 3.3 34 1.1 85 85 Calm 30.52 1033 10 16 0.00 0.00
6:15 am 06:15 Clear with Patchy Fog 39 3.9 35 1.7 86 86 Calm 30.51 1033 10 16 0.00 0.00
6:23 am 06:23 Clear with Fog 39 3.9 34 1.1 82 82 Calm 30.52 1034 0 0 0.00 0.00
6:36 am 06:36 Mostly Clear with Fog 38 3.3 35 1.7 89 89 Calm 30.52 1034 0 0 0.00 0.00
6:53 am 06:53 Mostly Clear with Fog 39 3.9 37 2.8 93 93 E 3 6 30.52 1033 0 0 0.00 0.00
7:12 am 07:12 Partly Cloudy with Fog 37 2.8 36 2.2 96 96 Calm 30.55 1034 0 0 0.00 0.00
7:22 am 07:22 Partly Cloudy with Patchy Fog 37 2.8 36 2.2 96 96 SSE 5 7 30.55 1034 7 11 0.00 0.00
7:53 am 07:53 Partly Cloudy with Patchy Fog 39 3.9 37 2.8 93 93 SSE 5 7 30.53 1034 10 16 0.00 0.00
8:53 am 08:53 Mostly Sunny 42 5.6 37 2.8 82 82 SE 5 7 30.54 1034 10 16 0.00 0.00
9:53 am 09:53 Mostly Sunny 48 8.9 37 2.8 66 66 SSW 5 7 30.56 1035 10 16 0.00 0.00
10:53 am 10:53 Mostly Sunny 52 11.1 36 2.2 54 54 VRB 5 7 30.56 1035 10 16 0.00 0.00
11:53 am 11:53 Partly Cloudy 54 12.2 35 1.7 49 49 SSE 6 9 30.55 1035 10 16 0.00 0.00
12:53 pm 12:53 Partly Cloudy 57 13.9 34 1.1 42 42 VRB 6 9 30.53 1034 10 16 0.00 0.00
1:53 pm 13:53 Partly Cloudy 59 15 33 0.6 37 37 VRB 3 6 30.52 1033 10 16 0.00 0.00
2:53 pm 14:53 Mostly Cloudy 60 15.6 33 0.6 36 36 SSE 7 11 30.49 1033 10 16 0.00 0.00
3:53 pm 15:53 Mostly Cloudy 60 15.6 33 0.6 36 36 S 6 9 30.48 1032 10 16 0.00 0.00
4:53 pm 16:53 Cloudy 61 16.1 32 0 33 33 SSE 7 11 30.46 1032 10 16 0.00 0.00
5:53 pm 17:53 Cloudy 60 15.6 30 -1.1 32 32 SE 7 11 30.45 1031 10 16 0.00 0.00
6:53 pm 18:53 Cloudy 58 14.4 33 0.6 39 39 SE 9 15 30.45 1031 10 16 0.00 0.00
7:53 pm 19:53 Mostly Cloudy 55 12.8 36 2.2 48 48 SE 9 15 30.44 1031 10 16 0.00 0.00
8:53 pm 20:53 Partly Cloudy 53 11.7 35 1.7 50 50 SE 10 17 30.44 1031 10 16 0.00 0.00
9:53 pm 21:53 Mostly Cloudy 50 10 35 1.7 56 56 SSE 7 11 30.45 1031 10 16 0.00 0.00
10:53 pm 22:53 Mostly Cloudy 50 10 34 1.1 54 54 SSE 12 19 30.44 1031 10 16 0.00 0.00
11:53 pm 23:53 Partly Cloudy 49 9.4 34 1.1 56 56 SSE 9 15 30.44 1031 10 16 0.00 0.00

Powered by AerisWeather